Weather History for Bar Harbor, ME

Change the Weather History Date:

Tuesday, March 5, 2013

  Actual Average Record
Temperature  
Mean Temperature 38 °F -  
Max Temperature 42 °F 39 °F 55 °F (1979)
Min Temperature 33 °F 22 °F 2 °F (1967)
Degree Days  
Heating Degree Days 28    
Moisture  
Dew Point 35 °F    
Average Humidity 90    
Maximum Humidity 100    
Minimum Humidity 76    
Precipitation  
Precipitation 0.01 in - - ()
Sea Level Pressure  
Sea Level Pressure 29.91 in    
Wind  
Wind Speed 11 mph (NNE)    
Max Wind Speed 17 mph    
Max Gust Speed 24 mph    
Visibility 10 miles    
Events      
Averages and records for this station are not official NWS values.
T = Trace of Precipitation, MM = Missing Value Source: NWS Daily Summary

Daily Weather History Graph

Daily Weather History Graph

Search for Another Location

Airport:

Trip Planner

Search our weather history database for the weather conditions in past years. The results will help you decide how hot, cold, wet, or windy it might be!

Date:

Astronomy

Mar. 05, 2013 Rise Set
Actual Time 6:03 AM EST 5:26 PM EST
Civil Twilight 5:34 AM EST 5:56 PM EST
Nautical Twilight 5:00 AM EST 6:29 PM EST
Astronomical Twilight 4:26 AM EST 7:03 PM EST
Moon 1:22 AM EST (3/5) 10:52 AM EST (3/5)
Length of Visible Light 12h 21m
Length of Day
11h 23m
Last Quarter, 41% of the Moon is Illuminated
Mar 5
Last Quarter
Mar 11
New
Mar 19
First Quarter
Mar 27
Full
Apr 3
Last Quarter

Hourly Weather History & Observations

Time (EST) Temp. Windchill Dew Point Humidity Pressure Visibility Wind Dir Wind Speed Gust Speed Precip Events Conditions
12:15 AM 33.8 °F 25.8 °F 32.0 °F 93% 29.63 in 9.0 mi North 10.4 mph - N/A   Overcast
12:35 AM 33.8 °F 25.8 °F 33.8 °F 100% 29.64 in 10.0 mi North 10.4 mph 16.1 mph N/A   Overcast
12:55 AM 33.8 °F 25.8 °F 33.8 °F 100% 29.65 in 10.0 mi North 10.4 mph - N/A   Overcast
1:15 AM 33.8 °F 26.4 °F 33.8 °F 100% 29.67 in 10.0 mi North 9.2 mph - 0.01 in   Overcast
2:35 AM 33.8 °F 27.0 °F 33.8 °F 100% 29.69 in 10.0 mi North 8.1 mph - N/A   Overcast
2:55 AM 33.8 °F 27.0 °F 33.8 °F 100% 29.70 in 10.0 mi North 8.1 mph - N/A   Overcast
3:15 AM 33.8 °F 26.4 °F 33.8 °F 100% 29.71 in 10.0 mi North 9.2 mph - N/A   Overcast
3:35 AM 35.6 °F 28.6 °F 33.8 °F 93% 29.72 in 10.0 mi North 9.2 mph - N/A   Overcast
3:55 AM 35.6 °F 28.6 °F 33.8 °F 93% 29.74 in 10.0 mi North 9.2 mph - N/A   Overcast
4:15 AM 35.6 °F 28.6 °F 33.8 °F 93% 29.75 in 10.0 mi North 9.2 mph - N/A   Overcast
4:35 AM 35.6 °F 29.2 °F 33.8 °F 93% 29.76 in 10.0 mi North 8.1 mph - N/A   Overcast
4:55 AM 35.6 °F 30.7 °F 33.8 °F 93% 29.77 in 10.0 mi North 5.8 mph - N/A   Overcast
5:15 AM 35.6 °F 29.9 °F 33.8 °F 93% 29.78 in 10.0 mi North 6.9 mph - N/A   Overcast
5:35 AM 35.6 °F 29.2 °F 33.8 °F 93% 29.79 in 10.0 mi North 8.1 mph - N/A   Overcast
5:55 AM 35.6 °F 28.6 °F 33.8 °F 93% 29.80 in 10.0 mi North 9.2 mph - N/A   Overcast
6:15 AM 35.6 °F 28.0 °F 33.8 °F 93% 29.81 in 10.0 mi North 10.4 mph - N/A   Overcast
6:35 AM 35.6 °F 28.6 °F 33.8 °F 93% 29.82 in 10.0 mi North 9.2 mph - N/A   Overcast
6:55 AM 35.6 °F 29.9 °F 33.8 °F 93% 29.83 in 10.0 mi North 6.9 mph - N/A   Overcast
7:15 AM 35.6 °F 28.6 °F 33.8 °F 93% 29.84 in 10.0 mi North 9.2 mph - N/A   Overcast
7:35 AM 35.6 °F 29.2 °F 33.8 °F 93% 29.85 in 10.0 mi North 8.1 mph - N/A   Overcast
8:15 AM 35.6 °F 27.5 °F 35.6 °F 100% 29.86 in 10.0 mi NNE 11.5 mph - N/A   Overcast
8:35 AM 35.6 °F 27.1 °F 35.6 °F 100% 29.87 in 10.0 mi NNE 12.7 mph 19.6 mph N/A   Overcast
8:55 AM 37.4 °F 29.3 °F 35.6 °F 93% 29.87 in 10.0 mi NNE 12.7 mph 20.7 mph N/A   Overcast
9:15 AM 37.4 °F 29.3 °F 35.6 °F 93% 29.88 in 10.0 mi NNE 12.7 mph 21.9 mph N/A   Overcast
9:35 AM 37.4 °F 29.8 °F 35.6 °F 93% 29.89 in 10.0 mi North 11.5 mph 17.3 mph N/A   Overcast
9:55 AM 37.4 °F 29.3 °F 35.6 °F 93% 29.89 in 10.0 mi North 12.7 mph 19.6 mph N/A   Overcast
10:15 AM 39.2 °F 30.2 °F 35.6 °F 87% 29.90 in 10.0 mi NNE 17.3 mph - N/A   Overcast
10:35 AM 39.2 °F 30.2 °F 33.8 °F 81% 29.90 in 10.0 mi NNE 17.3 mph 21.9 mph N/A   Overcast
10:55 AM 39.2 °F 31.2 °F 33.8 °F 81% 29.91 in 10.0 mi NNE 13.8 mph 23.0 mph N/A   Overcast
11:15 AM 39.2 °F 31.2 °F 35.6 °F 87% 29.90 in 10.0 mi North 13.8 mph 21.9 mph N/A   Overcast
11:35 AM 42.8 °F 36.2 °F 37.4 °F 81% 29.91 in 10.0 mi NNE 12.7 mph 18.4 mph N/A   Mostly Cloudy
11:55 AM 41.0 °F 33.1 °F 35.6 °F 81% 29.91 in 10.0 mi NNE 15.0 mph 24.2 mph N/A   Overcast
12:15 PM 41.0 °F 33.5 °F 35.6 °F 81% 29.91 in 10.0 mi North 13.8 mph 20.7 mph N/A   Overcast
12:35 PM 42.8 °F 35.8 °F 35.6 °F 76% 29.91 in 10.0 mi NE 13.8 mph 18.4 mph N/A   Overcast
12:55 PM 42.8 °F 36.2 °F 35.6 °F 76% 29.92 in 10.0 mi North 12.7 mph 18.4 mph N/A   Overcast
1:15 PM 42.8 °F 35.8 °F 35.6 °F 76% 29.92 in 10.0 mi NE 13.8 mph - N/A   Overcast
1:55 PM 42.8 °F 36.2 °F 35.6 °F 76% 29.93 in 10.0 mi North 12.7 mph - N/A   Mostly Cloudy
2:15 PM 42.8 °F 36.2 °F 35.6 °F 76% 29.94 in 9.0 mi North 12.7 mph 19.6 mph N/A   Overcast
2:35 PM 42.8 °F 35.8 °F 35.6 °F 76% 29.94 in 10.0 mi North 13.8 mph 18.4 mph N/A   Overcast
2:55 PM 42.8 °F 37.0 °F 35.6 °F 76% 29.95 in 10.0 mi North 10.4 mph - N/A   Mostly Cloudy
3:15 PM 41.0 °F 35.2 °F 35.6 °F 81% 29.95 in 10.0 mi North 9.2 mph 18.4 mph N/A   Overcast
3:35 PM 41.0 °F 33.5 °F 35.6 °F 81% 29.96 in 10.0 mi NNE 13.8 mph 20.7 mph N/A   Overcast
3:55 PM 39.2 °F 31.6 °F 35.6 °F 87% 29.97 in 10.0 mi North 12.7 mph 18.4 mph N/A   Mostly Cloudy
4:15 PM 39.2 °F 32.0 °F 35.6 °F 87% 29.98 in 10.0 mi North 11.5 mph - N/A   Overcast
4:35 PM 39.2 °F 33.6 °F 35.6 °F 87% 29.99 in 10.0 mi NNE 8.1 mph - N/A   Overcast
4:55 PM 39.2 °F 33.6 °F 35.6 °F 87% 29.99 in 10.0 mi North 8.1 mph - N/A   Overcast
5:15 PM 39.2 °F 33.6 °F 37.4 °F 93% 30.00 in 10.0 mi North 8.1 mph - N/A   Overcast
5:35 PM 37.4 °F 32.1 °F 37.4 °F 100% 30.01 in 9.0 mi North 6.9 mph - N/A   Overcast
5:55 PM 37.4 °F 27.8 °F 35.6 °F 93% 30.01 in 10.0 mi NNE 17.3 mph - N/A   Overcast
6:15 PM 37.4 °F 30.3 °F 35.6 °F 93% 30.02 in 10.0 mi NNE 10.4 mph - N/A   Overcast
6:35 PM 37.4 °F 31.4 °F 35.6 °F 93% 30.03 in 9.0 mi North 8.1 mph - N/A   Overcast
6:55 PM 37.4 °F 30.3 °F 35.6 °F 93% 30.04 in 10.0 mi NNE 10.4 mph 20.7 mph N/A   Overcast
7:15 PM 35.6 °F 26.2 °F 33.8 °F 93% 30.04 in 10.0 mi NNE 15.0 mph 19.6 mph N/A   Overcast
7:35 PM 35.6 °F 28.6 °F 33.8 °F 93% 30.05 in 10.0 mi NNE 9.2 mph - N/A   Overcast
7:55 PM 35.6 °F 27.1 °F 33.8 °F 93% 30.06 in 10.0 mi NNE 12.7 mph 18.4 mph N/A   Overcast
8:15 PM 35.6 °F 27.1 °F 33.8 °F 93% 30.06 in 10.0 mi NNE 12.7 mph 19.6 mph N/A   Overcast
8:35 PM 35.6 °F 27.5 °F 33.8 °F 93% 30.07 in 10.0 mi NNE 11.5 mph 18.4 mph N/A   Overcast
8:55 PM 35.6 °F 27.1 °F 33.8 °F 93% 30.07 in 10.0 mi NNE 12.7 mph - N/A   Overcast
9:15 PM 35.6 °F 27.5 °F 33.8 °F 93% 30.08 in 10.0 mi NNE 11.5 mph - N/A   Overcast
9:35 PM 35.6 °F 27.5 °F 33.8 °F 93% 30.08 in 10.0 mi NNE 11.5 mph - N/A   Overcast
9:55 PM 35.6 °F 26.2 °F 33.8 °F 93% 30.08 in 10.0 mi NNE 15.0 mph - N/A   Overcast
10:15 PM 35.6 °F 26.2 °F 33.8 °F 93% 30.09 in 10.0 mi NNE 15.0 mph 19.6 mph N/A   Overcast
10:35 PM 35.6 °F 27.1 °F 33.8 °F 93% 30.10 in 10.0 mi NNE 12.7 mph - N/A   Overcast
10:55 PM 35.6 °F 27.1 °F 33.8 °F 93% 30.11 in 10.0 mi NE 12.7 mph 17.3 mph N/A   Overcast
11:15 PM 35.6 °F 27.5 °F 33.8 °F 93% 30.11 in 10.0 mi NE 11.5 mph 18.4 mph N/A   Overcast
11:35 PM 35.6 °F 27.5 °F 33.8 °F 93% 30.12 in 10.0 mi NE 11.5 mph 18.4 mph N/A   Overcast
11:55 PM 35.6 °F 27.5 °F 33.8 °F 93% 30.13 in 10.0 mi NE 11.5 mph 18.4 mph N/A   Overcast